Voltar ao catálogo

CZ-7A R/B

AtivoHEO
NORAD 55132·ROCKET BODY·🇨🇳 China

Lançado Jan 8, 2023 de Wenchang Space Launch Site

Loading…

Próximas Passagens (próximas 24 horas)

TLE

AtualizadoSource: Space-Track

Época: Sep 14, 2026, 00:43 UTC

1 55132U 23002B   26257.02997300  .00066457  54866-6  95775-3 0  9994
2 55132  16.4550 220.7600 5738384 174.7166 195.9720  4.54842089 47857

Acompanhe CZ-7A R/B em tempo real com AllMySat

Download on the App Store